Theta_e
303 304 304 304 304 304 304 304 303 303 304 303 303 302 301 300 300 299 299 298 298 298 298 298 299 299 299 300 300 300 300 300 301 301 301 301 301 301 301 300 300 299 299 298 298 297 296 296 295 295 295 295 295 294 294 294 294 294 294 294 295 295 295 295 295 295 295 295 295 294 294 294 293 293 293 293 292 292 291 291 292 292 292 293 293
300 301 302 302 302 303 303 303 303 303 303 303 303 303 302 301 300 299 298 298 298 297 297 297 298 298 298 298 299 299 299 300 300 300 301 301 301 301 301 301 301 300 300 299 299 298 297 296 296 295 295 295 294 294 294 294 294 294 294 294 294 294 294 294 294 294 294 295 295 294 294 293 293 293 293 292 292 292 291 291 291 291 292 292 293
297 298 299 300 301 301 302 302 303 303 303 302 302 302 302 302 301 301 300 299 298 297 297 297 297 297 297 297 297 298 298 299 299 299 300 300 300 301 301 301 301 301 301 301 300 300 299 298 297 296 295 294 294 294 294 293 293 293 293 294 294 294 294 294 294 294 294 294 295 294 294 293 293 293 293 292 292 291 291 291 291 291 292 292 292
296 296 297 298 299 300 300 301 301 302 302 302 302 302 302 301 301 301 301 300 299 298 297 296 296 296 296 296 297 297 297 298 298 298 299 299 299 300 300 300 301 301 301 301 301 301 300 300 299 298 296 295 295 294 294 293 293 293 293 293 293 293 293 293 293 293 293 294 294 294 294 293 292 292 292 292 291 291 291 290 291 291 292 292 292
295 295 295 296 297 298 299 300 300 300 300 300 301 301 302 301 301 301 301 301 301 300 298 297 296 295 295 296 296 296 297 297 297 297 298 298 298 299 299 299 300 300 300 301 301 301 300 301 300 299 297 296 296 295 294 294 293 293 292 292 292 293 293 293 293 293 293 293 293 293 293 293 292 292 292 291 290 290 290 290 291 291 292 292 292
293 293 294 294 295 296 297 298 299 299 299 299 299 300 300 301 302 301 301 300 300 300 300 299 297 296 295 295 295 296 296 296 296 297 297 297 297 297 298 298 298 299 299 299 299 299 299 300 300 299 298 298 297 296 295 294 293 293 292 292 292 292 292 292 292 292 292 292 292 292 293 292 292 292 292 291 290 290 290 290 291 291 292 292 292
292 292 292 293 293 294 295 296 296 297 297 298 298 298 299 300 301 301 301 301 300 300 300 300 299 298 296 295 295 295 295 295 296 296 296 296 296 296 296 297 297 297 298 298 298 298 298 298 299 299 299 298 298 297 295 294 293 292 292 292 292 291 291 291 291 291 291 291 291 291 292 292 292 292 292 292 291 290 290 291 291 291 291 291 291
291 291 291 291 292 292 293 294 294 295 295 296 296 297 297 298 299 300 300 301 300 299 299 299 299 299 298 297 295 295 295 295 295 295 295 295 295 295 295 296 296 296 296 297 297 297 297 297 298 298 298 298 298 298 296 295 293 292 291 291 291 291 291 291 291 290 290 290 290 290 291 291 291 291 291 291 291 291 291 291 291 291 291 292 292
290 290 290 290 290 290 291 292 292 293 294 294 295 296 296 296 296 297 298 299 300 299 299 298 298 298 298 297 296 295 295 294 294 294 294 294 295 295 295 295 295 295 296 296 296 297 297 297 297 297 297 297 297 297 296 295 294 292 291 291 291 291 291 291 291 290 290 290 290 290 290 290 290 290 291 291 291 291 291 290 290 291 291 291 291
289 289 289 289 289 289 289 290 290 291 292 293 293 294 294 295 295 295 296 297 298 299 299 298 298 298 298 297 296 295 294 294 294 293 293 294 294 294 294 294 294 294 295 295 295 296 296 296 297 297 296 296 296 295 294 294 294 293 291 290 290 290 291 291 290 290 290 290 290 290 290 290 290 290 291 291 290 290 290 290 290 290 289 290 291
288 288 288 288 288 288 288 288 288 289 290 291 291 292 292 293 293 294 294 294 295 297 298 298 298 297 297 297 296 295 295 294 293 293 293 293 293 293 293 293 293 293 294 294 294 295 295 295 296 296 295 295 295 294 294 293 293 292 291 290 289 290 290 290 290 290 290 290 290 290 290 290 290 290 290 290 290 289 289 289 289 288 288 288 289
288 288 288 287 287 287 287 287 287 287 288 288 289 290 290 291 291 292 293 293 293 294 295 296 297 297 297 296 296 296 295 294 292 292 292 292 292 292 292 292 292 292 293 293 293 293 294 294 294 295 295 295 294 294 293 293 292 291 290 289 289 289 289 289 290 290 290 290 290 290 289 289 289 290 290 289 289 289 289 289 288 287 287 287 287
287 287 287 287 287 287 287 286 286 286 286 286 287 287 288 289 290 290 291 292 292 292 293 293 295 296 296 297 296 296 295 294 293 292 291 291 291 291 291 291 291 291 292 292 292 292 293 293 293 294 294 294 293 293 292 292 291 291 290 289 289 288 288 288 288 289 289 289 289 289 289 289 289 289 289 289 289 289 289 288 287 286 286 286 287
287 286 286 286 286 286 286 286 286 286 286 286 286 286 286 287 288 288 289 289 290 291 291 292 292 293 294 296 296 296 295 294 294 293 292 291 290 290 290 290 291 291 291 291 291 291 292 292 292 293 293 293 293 292 292 291 290 290 289 288 288 288 287 287 287 287 287 287 288 288 288 288 289 288 288 288 288 288 288 287 286 286 286 286 286
287 286 286 286 286 286 286 286 286 286 286 286 286 286 286 286 286 286 287 287 288 288 289 290 291 292 292 293 294 295 295 295 294 293 292 291 290 290 290 290 290 290 290 290 290 291 291 291 291 291 292 292 292 292 292 291 290 290 289 288 288 287 287 286 286 286 287 287 286 286 286 287 287 287 287 287 288 288 287 286 285 285 285 285 285
287 286 286 286 286 286 286 286 286 285 285 285 285 285 285 285 285 286 286 286 287 287 287 288 288 290 291 291 292 293 294 295 294 294 293 292 291 290 289 289 290 290 290 290 290 290 290 290 290 291 291 291 291 291 291 290 290 289 289 288 288 288 287 286 286 286 286 286 286 286 286 286 287 287 287 287 288 288 287 285 284 284 284 284 284
287 286 286 286 286 286 285 285 285 285 285 285 285 285 285 285 285 285 285 285 286 286 286 286 287 287 288 289 290 291 292 293 294 294 293 292 291 290 289 289 289 289 290 290 289 289 289 289 289 290 290 290 290 290 290 289 289 288 288 287 287 287 286 286 286 285 285 285 285 285 286 286 286 286 286 287 287 287 285 284 284 284 284 283 284
287 286 286 286 286 286 285 285 285 285 285 285 285 285 285 285 285 285 285 285 285 285 285 286 286 286 287 287 288 289 290 291 292 293 293 293 291 290 289 288 288 288 289 289 289 289 289 289 289 289 289 289 289 289 289 289 288 288 287 286 286 286 286 285 285 285 284 284 284 284 285 285 285 285 286 286 286 285 284 283 283 283 283 283 283
286 286 286 285 285 285 285 285 285 285 285 285 285 285 285 285 285 285 285 285 285 285 285 285 285 286 286 286 286 287 288 289 290 290 292 292 292 291 289 288 287 288 288 287 288 288 288 288 288 288 288 288 288 288 288 288 288 287 287 286 285 285 285 285 284 284 284 284 284 284 284 284 285 285 285 286 286 284 283 283 283 283 283 283 282
285 285 285 285 285 285 285 285 285 285 285 285 285 285 284 284 284 284 284 285 285 285 285 285 285 285 285 285 286 286 287 287 288 288 289 291 292 291 290 288 287 287 287 287 287 287 287 288 288 288 288 288 288 288 287 287 287 287 286 286 286 285 285 284 284 284 284 284 285 285 285 285 285 285 286 286 285 284 283 283 283 283 282 281 281
284 284 284 284 285 285 285 284 284 284 284 284 284 284 284 284 284 284 284 284 284 285 285 285 285 286 286 285 285 285 286 286 287 287 288 289 290 291 291 290 289 287 286 286 286 286 287 287 288 288 288 288 288 287 287 287 286 286 286 286 286 285 285 284 284 284 284 284 284 284 284 285 285 285 286 286 285 284 283 282 282 281 280 280 281
283 283 283 283 283 284 284 284 284 284 284 283 283 283 284 284 284 283 283 284 284 284 285 285 285 285 286 286 285 285 285 285 286 286 286 287 288 290 291 291 290 288 286 286 286 286 286 286 287 287 288 288 288 288 288 287 286 286 286 286 285 284 284 283 283 283 283 283 283 283 284 285 285 286 286 285 284 283 282 281 281 280 279 280 280
281 281 282 282 282 283 283 283 283 283 283 283 283 283 283 283 283 283 283 283 283 284 284 284 284 285 285 286 286 286 285 285 285 285 286 286 286 287 289 291 291 289 287 286 286 287 287 286 286 286 287 287 287 287 287 287 286 285 285 285 284 283 283 282 282 283 283 283 283 283 284 285 285 285 285 285 284 282 281 280 280 279 279 279 280
280 280 281 281 281 282 282 282 282 282 282 282 282 282 283 283 282 283 283 283 283 283 284 284 284 284 285 285 286 286 286 285 285 285 285 285 286 286 287 289 290 290 289 288 287 286 286 287 286 286 286 286 286 286 286 286 285 284 284 284 283 282 282 282 282 282 282 283 283 284 285 286 285 285 285 284 282 281 280 280 279 279 278 279 280
279 279 280 280 281 281 281 281 282 282 282 281 281 282 282 282 282 283 283 283 283 283 283 284 284 284 284 284 285 286 286 285 285 284 284 285 285 286 286 287 288 290 290 289 287 286 286 286 286 286 286 285 285 285 285 284 284 283 283 284 284 283 282 282 281 281 282 283 284 285 285 285 285 285 284 282 281 280 280 280 279 279 279 279 279
277 278 278 279 279 279 279 280 281 281 281 280 280 280 281 281 281 282 282 282 283 283 283 283 284 284 284 284 284 285 285 285 285 285 284 284 284 285 285 285 286 288 289 289 288 287 286 285 286 286 286 285 284 283 283 283 283 283 283 283 283 282 282 281 281 281 283 284 285 285 284 284 284 283 282 280 280 280 280 280 279 279 279 279 279
275 275 276 276 276 276 276 277 277 278 278 278 278 278 279 279 279 279 280 281 281 282 282 283 283 283 284 284 284 284 284 285 285 285 285 284 284 284 284 285 285 287 289 289 288 287 286 285 286 286 286 286 285 283 283 282 282 282 283 282 282 282 281 281 281 282 284 285 285 284 284 284 283 282 280 280 280 280 280 279 279 279 279 279 279
272 273 273 273 273 273 273 273 273 273 274 274 274 275 275 275 275 276 278 279 279 279 280 280 281 282 282 283 283 283 283 284 285 285 285 284 284 284 284 284 285 286 288 289 288 286 285 285 285 285 285 285 284 283 282 282 282 282 282 282 282 282 282 281 282 283 283 284 284 283 283 282 281 280 280 280 280 280 279 279 279 279 278 279 278
270 270 270 270 270 270 269 269 270 270 270 271 271 272 272 272 272 273 275 276 276 276 277 278 279 280 280 280 280 281 282 284 285 285 284 284 284 284 284 284 284 285 287 289 288 286 285 285 285 285 285 284 284 282 282 282 282 282 282 282 282 282 282 282 282 282 282 282 282 282 281 281 280 280 280 280 279 279 279 278 278 278 278 278 278
268 268 267 266 266 266 266 266 267 267 267 268 269 269 269 270 270 270 272 274 274 274 274 275 277 277 277 278 279 279 281 283 284 283 283 284 284 284 284 284 284 284 286 288 286 285 285 284 284 284 284 284 284 283 282 281 282 282 282 282 282 282 282 282 282 282 282 282 281 281 280 280 280 279 279 279 279 278 278 278 278 278 278 278 277
265 265 264 263 263 263 263 264 264 265 265 266 266 267 267 268 268 269 269 270 271 271 272 273 274 275 275 276 278 278 279 281 282 282 282 283 284 284 284 284 283 284 286 287 286 285 285 285 284 284 284 284 283 283 282 282 282 282 282 282 281 281 282 282 282 282 282 281 280 280 280 279 279 279 279 279 278 278 278 277 277 277 277 277 277
262 262 261 261 261 261 261 262 262 263 263 264 264 265 265 266 267 267 268 268 269 270 271 271 272 274 274 275 277 278 279 280 280 281 281 282 283 283 283 283 283 284 286 286 285 284 285 285 284 284 284 284 283 283 282 282 281 281 282 282 281 281 281 282 282 282 281 280 280 280 279 279 279 279 279 278 278 277 277 277 277 277 277 277 277
261 261 260 260 261 261 261 261 261 262 262 262 263 264 264 264 265 266 267 267 268 269 270 270 272 273 273 274 275 276 277 278 278 280 281 282 283 283 283 283 283 283 284 285 284 284 284 285 284 284 284 284 283 283 282 282 281 281 282 282 282 281 281 281 281 281 280 280 280 279 279 279 279 278 278 277 277 277 277 276 276 276 276 276 276
261 260 260 260 260 260 261 261 261 261 262 262 262 263 263 263 264 264 265 266 267 267 268 269 271 272 273 274 274 275 276 276 277 278 281 282 283 283 283 283 282 283 283 284 284 284 284 284 284 283 283 282 282 282 282 281 281 281 281 281 281 281 281 281 281 280 280 280 279 279 278 278 278 277 277 276 276 276 276 276 276 276 276 276 276
261 261 261 261 261 261 261 261 261 261 261 262 262 262 262 263 263 264 264 265 265 266 267 267 269 270 271 272 273 274 275 276 276 278 280 282 283 283 283 283 282 282 283 284 284 283 283 283 283 283 282 281 281 282 282 281 281 281 281 281 281 281 281 281 280 280 280 279 279 278 278 277 277 276 276 275 276 276 276 276 276 276 276 276 276
262 262 261 261 261 261 261 261 261 261 261 262 262 262 262 263 263 263 264 264 265 265 266 266 267 268 270 271 272 274 275 276 277 278 280 282 283 283 283 283 282 282 282 283 284 283 283 283 283 283 282 281 281 281 281 281 281 281 281 281 281 281 280 281 280 280 280 279 278 278 277 276 276 275 275 275 276 276 276 276 276 276 275 275 275
262 262 262 262 262 262 261 261 261 261 261 261 262 262 262 262 263 263 264 264 264 265 265 266 267 268 269 271 272 274 275 276 277 278 279 281 282 283 283 283 282 282 282 283 283 283 283 283 283 282 281 281 281 281 281 281 281 281 281 280 280 280 280 280 280 280 279 279 278 277 276 275 275 275 275 276 276 276 276 275 275 275 275 275 275
262 262 262 262 262 262 262 261 262 262 262 262 262 262 262 263 263 263 264 264 265 265 265 266 267 267 268 269 271 273 275 276 277 277 278 279 281 283 283 283 283 282 282 282 283 283 283 283 282 281 280 280 281 281 281 281 281 282 281 280 280 280 280 280 279 279 278 278 277 276 276 275 275 275 276 276 275 275 275 274 274 274 275 274 274
262 262 263 263 262 262 262 262 262 262 262 262 263 263 263 264 264 264 265 265 265 266 266 267 267 267 268 269 270 271 274 276 277 277 278 279 280 282 283 283 283 282 282 282 282 283 283 282 281 280 280 280 280 280 281 281 281 282 281 280 279 279 279 279 278 277 277 276 276 276 275 275 275 275 275 275 275 274 274 274 274 274 274 273 273
262 262 263 263 263 262 262 262 262 262 263 263 263 263 264 264 264 265 265 265 266 266 267 267 268 268 269 269 270 271 273 275 277 278 278 278 279 281 282 283 283 282 282 282 282 282 282 282 281 280 279 279 280 280 281 281 281 281 280 280 279 279 278 278 277 277 276 276 275 275 275 275 275 275 275 274 274 274 273 274 274 273 273 273 273
262 262 263 263 263 263 263 263 263 263 263 263 263 263 263 264 264 265 265 266 266 267 267 268 269 269 269 270 270 271 272 273 275 277 277 278 279 281 282 283 283 283 282 282 282 281 282 282 281 279 279 279 280 280 281 281 281 280 280 279 278 278 278 277 277 276 275 275 274 274 274 274 274 274 274 273 273 273 273 273 273 273 272 272 272
262 262 263 264 264 264 263 263 264 264 263 263 263 263 264 264 264 265 265 266 266 267 267 268 269 269 270 271 272 272 272 273 274 275 276 277 278 279 281 283 283 283 282 282 282 281 281 281 281 280 279 279 280 281 281 281 281 280 279 278 278 277 277 276 276 275 274 274 274 274 274 274 273 273 273 273 273 273 273 273 272 272 272 272 272
263 263 263 264 264 265 265 265 265 264 264 264 264 264 264 264 264 264 265 265 266 266 267 267 268 269 270 271 272 273 274 274 274 274 275 276 277 278 280 281 282 282 282 282 281 281 281 281 280 280 280 280 280 281 281 281 280 279 278 277 277 277 276 276 275 275 274 274 274 273 273 273 273 273 272 272 272 272 272 272 272 272 272 271 271
264 264 264 264 264 265 265 265 265 265 265 265 264 264 264 264 264 264 264 265 265 266 266 267 268 268 269 271 272 274 274 275 275 275 275 276 277 277 279 280 281 282 282 281 281 281 281 281 280 280 280 280 280 281 281 280 280 279 278 277 277 276 276 275 275 275 274 274 274 273 273 273 273 272 272 272 272 272 272 272 272 272 271 271 271
264 264 264 264 264 264 265 265 266 266 266 266 265 265 265 265 265 265 265 265 266 266 266 267 268 269 270 271 273 274 275 275 275 275 275 276 277 278 279 280 281 281 281 281 281 281 281 281 280 280 280 280 280 280 279 279 278 278 277 277 276 276 276 275 275 274 274 273 273 273 273 272 272 272 271 271 271 271 272 272 271 271 271 271 270
264 265 265 265 265 265 265 266 266 267 267 267 267 266 266 266 266 266 266 266 267 267 268 269 270 271 271 272 273 274 275 275 275 275 276 276 278 278 279 279 280 280 280 281 280 280 280 280 280 280 280 279 279 279 278 277 276 276 275 275 275 275 275 274 274 273 273 273 273 273 272 272 271 271 271 271 271 271 271 271 271 271 270 270 270
265 265 265 265 266 266 267 267 267 267 268 268 267 267 267 267 267 267 267 268 269 269 270 271 271 272 272 273 273 274 275 275 275 276 276 277 278 279 279 279 279 280 280 280 280 280 280 280 279 279 279 279 278 277 277 276 275 275 274 274 274 274 273 273 273 273 273 272 272 272 271 271 271 271 271 271 271 270 271 271 270 270 270 269 269
266 266 266 266 267 267 267 268 268 268 269 269 268 268 268 269 269 269 269 269 270 270 271 271 272 272 273 273 274 274 275 275 275 276 277 277 278 278 279 279 279 279 279 279 279 279 278 278 278 278 278 278 277 276 276 275 275 274 274 273 273 273 273 273 273 272 272 272 272 271 271 271 271 270 270 270 270 270 270 270 270 269 269 269 269
266 266 266 267 267 267 268 268 268 268 269 269 269 269 269 269 269 270 270 270 271 271 271 272 272 273 273 274 274 274 275 275 276 276 277 277 278 278 278 278 278 279 279 278 278 277 277 277 277 277 277 276 276 275 275 274 274 274 274 273 273 273 273 272 272 272 272 272 271 271 271 271 270 270 270 270 270 270 270 270 269 269 269 269 269
267 267 267 267 267 267 268 268 268 269 269 269 269 269 269 270 270 270 271 271 271 272 272 273 273 273 273 274 274 274 275 275 275 276 277 277 277 278 278 277 277 277 277 277 277 276 276 275 275 275 275 275 274 274 274 274 273 273 273 273 273 272 272 272 272 272 272 271 271 271 271 270 270 270 269 269 269 269 269 269 269 269 269 269 268
267 267 267 267 267 268 268 268 268 269 269 269 269 270 270 270 270 271 271 271 272 272 272 272 273 273 273 274 274 274 275 275 275 276 276 277 277 277 277 276 276 276 276 276 275 275 274 274 274 274 274 273 273 273 273 273 273 272 272 272 272 272 272 272 272 271 271 271 270 270 270 270 269 269 269 269 269 269 269 269 269 269 269 268 268
Wind_Speed
20 21 23 25 26 25 25 25 23 21 20 20 19 18 17 18 19 21 24 27 30 33 35 36 37 37 38 38 38 39 40 40 40 40 41 44 46 49 52 54 57 59 60 62 62 62 61 61 61 60 60 58 58 57 55 53 52 51 50 48 48 46 44 43 42 40 38 36 33 30 29 27 26 25 24 23 23 23 23 24 24 23 23 22 21
20 20 22 23 25 26 26 26 25 24 22 21 20 20 19 18 17 18 20 22 25 28 32 34 35 36 37 38 38 39 39 40 39 39 40 41 43 45 47 49 51 54 56 59 60 61 61 61 61 61 60 59 59 59 57 56 54 54 53 51 50 49 47 45 43 42 40 39 36 34 32 30 28 27 26 25 24 24 24 24 24 24 23 23 21
21 21 22 23 24 25 26 25 25 25 24 23 22 21 21 20 20 20 20 20 21 24 27 30 32 34 36 38 38 39 39 39 39 40 40 41 42 43 44 46 48 50 52 54 55 56 57 59 60 61 60 60 61 61 59 58 57 56 55 54 52 51 49 47 45 43 42 40 39 37 35 32 30 29 27 25 25 25 24 24 24 24 24 23 22
22 21 21 22 23 25 26 26 26 26 25 25 24 23 23 22 21 22 22 22 22 22 23 25 29 32 34 35 37 38 38 39 39 40 41 41 42 43 44 45 47 48 49 50 50 51 52 55 57 59 60 61 62 62 61 60 59 58 57 55 54 53 51 48 47 45 43 41 39 38 36 34 31 30 28 26 26 26 25 25 25 25 25 24 22
23 23 21 21 21 23 25 26 27 27 27 26 25 25 24 23 23 23 23 24 24 24 23 23 25 29 32 33 34 35 36 37 38 39 40 41 41 42 44 45 47 48 49 49 49 49 51 53 54 56 58 60 62 63 63 63 61 60 59 57 56 54 52 50 48 47 45 43 41 39 37 34 32 30 29 27 26 27 27 27 26 26 26 25 23
25 24 22 21 20 20 21 23 25 27 28 28 27 26 25 25 24 24 23 24 24 25 25 25 25 26 28 30 31 33 34 35 37 38 38 39 40 41 43 44 46 48 50 50 51 51 52 52 53 54 56 59 61 63 63 63 62 61 60 59 57 55 53 51 49 48 46 45 43 41 39 36 33 32 31 30 29 29 28 28 28 27 26 26 24
27 26 25 24 22 21 20 20 21 23 25 27 27 27 26 26 25 25 25 24 24 24 24 25 25 25 25 27 29 31 32 34 35 37 38 39 40 40 42 43 45 48 50 51 52 52 53 53 53 53 54 57 59 61 61 62 62 62 61 60 58 57 54 52 50 49 47 46 45 44 41 38 36 34 33 33 32 31 31 30 30 28 27 26 25
27 27 27 27 26 24 22 21 20 21 22 23 24 25 25 25 25 24 24 24 25 24 24 24 24 25 25 25 26 28 30 32 34 36 37 38 39 40 42 43 45 47 49 50 52 52 53 54 54 53 54 55 56 57 58 59 61 62 62 61 59 58 56 54 52 51 49 48 47 45 43 40 38 36 35 35 35 33 32 32 31 29 28 28 26
27 27 27 27 26 25 24 22 22 21 21 21 22 23 24 24 24 24 23 23 23 24 24 24 24 24 24 24 25 25 27 30 31 33 35 36 38 39 41 43 44 46 48 49 50 52 53 54 54 53 52 53 54 54 55 57 60 62 63 62 60 59 57 55 54 53 52 50 49 47 44 42 40 37 36 36 35 34 33 32 31 29 28 29 27
27 27 27 27 26 26 25 24 23 22 22 22 22 22 22 23 24 24 23 23 23 23 23 23 24 24 24 24 24 25 26 27 27 28 31 33 37 39 40 42 43 45 47 48 49 51 53 54 54 52 51 52 53 53 54 56 58 59 60 60 60 60 58 57 56 55 54 52 51 49 46 44 41 38 37 36 34 33 33 32 31 29 28 29 28
27 27 27 27 27 27 26 26 24 24 23 23 23 23 22 22 23 23 23 23 23 23 22 23 23 23 24 25 25 25 26 25 24 25 27 30 34 38 40 40 42 43 45 48 49 50 51 52 52 52 52 52 52 52 53 55 55 56 57 58 59 59 58 57 57 57 55 54 53 50 48 46 42 38 37 35 34 33 33 32 31 29 29 30 28
27 27 28 28 27 27 27 27 26 26 25 24 24 24 24 24 23 23 23 23 23 24 23 23 23 23 23 24 25 26 26 23 22 23 25 27 30 35 38 39 40 42 44 46 48 49 50 51 51 51 51 52 52 52 52 53 53 53 54 55 56 57 57 56 56 55 54 54 53 51 49 45 41 39 37 35 34 34 33 32 31 31 30 30 28
26 27 27 28 28 28 28 28 28 27 27 27 26 26 26 26 25 25 24 24 24 24 24 24 24 23 24 24 24 26 26 24 22 21 23 25 27 30 35 38 39 41 43 45 47 48 49 49 49 49 49 49 51 52 52 52 51 51 51 53 54 56 57 56 55 53 51 50 50 50 47 43 40 38 37 34 34 34 33 32 32 32 31 30 28
27 27 28 29 29 29 30 30 30 29 28 28 27 27 27 27 27 28 27 26 26 26 26 26 25 25 25 25 25 25 25 25 24 23 22 23 25 28 31 35 38 40 42 44 45 46 47 47 48 48 47 48 50 51 51 51 50 49 50 52 54 56 57 57 56 54 51 48 45 43 42 40 38 36 34 33 33 33 32 32 32 32 31 30 28
30 30 30 30 30 31 31 31 32 31 31 30 29 29 28 28 28 28 28 29 28 28 28 28 27 27 26 27 27 26 25 25 24 24 24 23 23 26 29 32 36 39 41 43 44 45 46 46 46 46 46 47 48 49 49 48 47 48 49 52 54 56 57 58 57 55 52 48 44 40 38 36 36 36 35 33 33 32 32 33 32 31 31 30 29
33 33 33 33 33 33 33 34 34 34 33 33 32 31 31 30 29 28 28 29 29 29 30 29 29 28 28 28 29 28 27 26 25 24 24 24 23 25 28 32 34 37 39 42 43 45 45 45 45 45 46 46 46 46 46 45 45 46 48 51 53 54 57 58 57 54 51 47 44 42 40 38 37 37 36 34 33 34 34 34 33 32 32 31 30
35 36 36 37 37 36 36 36 36 36 36 36 35 34 34 33 31 30 30 30 29 30 31 31 31 31 30 29 30 30 29 27 26 26 24 24 24 25 27 31 34 36 38 39 41 43 44 44 44 45 45 45 45 44 43 42 43 45 47 49 52 53 55 56 55 52 49 46 45 43 41 39 38 37 36 34 34 35 35 35 33 32 32 32 29
39 39 39 39 39 39 39 39 39 39 39 39 38 38 37 36 34 33 32 32 31 30 30 31 32 32 31 31 30 31 31 28 27 27 26 24 24 25 27 29 34 36 36 37 39 41 41 42 43 44 44 44 44 42 41 41 42 44 46 49 51 53 54 55 54 52 49 47 46 43 41 39 38 37 36 35 34 35 35 34 32 31 32 31 29
41 42 42 42 43 42 42 42 42 42 42 42 41 41 41 40 39 37 36 35 34 32 31 31 31 31 31 31 31 32 32 30 29 28 27 26 24 25 26 28 32 35 36 38 40 40 40 40 40 42 43 43 42 41 41 42 43 44 45 48 51 53 54 54 53 52 51 49 47 44 42 40 38 37 36 35 34 35 34 34 33 31 31 30 28
43 44 44 46 46 46 45 45 44 44 44 44 44 44 43 43 43 41 40 39 38 37 34 32 32 31 30 31 31 32 32 32 30 29 28 27 25 24 26 29 31 33 35 39 40 41 41 40 39 40 40 41 41 40 41 42 43 43 44 47 51 52 52 51 51 51 50 49 47 44 43 40 39 38 37 36 37 37 37 36 33 30 29 29 27
45 45 46 47 48 49 49 49 48 47 47 46 46 46 45 45 45 45 44 43 42 41 39 36 35 33 31 31 31 32 32 33 31 30 29 28 26 25 26 29 31 31 34 37 39 40 41 41 40 38 37 37 38 39 40 41 42 43 44 46 47 47 47 48 48 48 48 48 46 44 42 40 39 38 37 37 39 39 37 34 31 29 30 29 27
45 46 47 48 49 50 50 51 51 51 51 50 50 49 48 47 47 47 46 46 46 44 43 40 39 37 35 33 31 31 32 32 32 31 30 30 29 26 26 29 30 30 32 36 38 38 39 41 40 37 34 33 34 35 36 39 41 43 44 44 43 43 45 47 47 47 48 47 45 44 42 40 38 37 36 37 39 37 34 31 30 29 30 28 27
46 48 49 50 50 51 51 52 52 53 53 53 53 53 52 50 49 48 48 49 49 48 47 44 42 41 39 37 34 32 31 32 33 33 31 30 30 29 28 28 28 29 33 36 38 37 36 37 37 36 34 34 35 34 33 35 39 42 43 42 41 43 45 46 47 47 47 46 45 43 40 38 37 35 35 37 37 34 31 30 30 29 29 27 26
49 50 52 52 53 54 54 54 54 54 55 55 55 55 55 54 53 51 50 50 51 51 50 49 47 45 43 41 39 35 33 33 34 34 33 31 30 31 30 28 27 28 32 36 38 37 36 34 32 32 33 34 35 34 33 34 37 41 43 41 40 42 45 47 47 46 45 44 43 40 38 37 36 36 37 38 36 33 31 31 30 29 28 27 26
51 52 54 55 56 56 56 57 57 56 56 55 55 56 56 56 55 55 53 53 53 54 53 52 51 49 47 45 44 40 36 35 35 35 34 33 32 32 32 30 28 27 29 34 36 36 36 34 30 30 31 32 33 33 34 35 35 37 41 41 40 42 46 47 47 46 45 44 41 39 39 38 36 37 37 35 33 32 33 32 30 27 26 26 25
51 53 54 56 57 57 58 59 60 60 58 57 57 57 57 57 58 58 57 56 55 55 55 55 54 53 51 49 48 45 41 38 37 36 36 36 34 32 31 31 30 27 27 31 33 34 35 34 31 30 29 30 31 32 34 35 33 35 39 40 40 43 46 47 48 49 48 45 42 40 38 37 37 36 35 32 32 33 32 30 28 26 25 24 23
52 54 56 57 57 58 58 60 61 62 62 61 61 61 61 60 59 59 59 59 58 57 57 57 55 55 54 54 52 49 46 43 40 38 36 37 37 34 31 30 29 28 27 29 31 34 35 34 34 32 29 28 29 30 33 34 33 36 40 41 41 43 45 46 47 47 45 42 40 38 37 37 36 34 32 31 32 31 29 27 26 24 23 23 23
57 59 61 61 61 62 62 63 64 65 65 66 65 64 64 62 61 61 60 57 55 55 55 55 55 55 55 55 55 53 51 48 45 42 38 37 37 36 34 31 30 29 28 27 30 35 36 34 35 35 32 31 29 29 32 33 33 37 41 41 42 43 42 42 41 39 39 39 38 37 37 36 34 32 32 32 31 29 27 27 25 23 22 23 24
58 60 61 61 62 63 62 62 63 63 64 66 66 67 66 63 60 61 61 57 54 54 54 55 57 57 55 54 55 55 55 55 52 45 40 38 38 38 36 34 31 29 27 25 29 36 37 36 35 36 36 35 32 31 32 33 34 37 40 41 43 43 41 39 37 37 37 38 37 36 36 35 33 33 33 32 29 28 27 26 24 22 22 22 24
55 57 56 55 56 54 51 50 50 48 48 50 52 56 63 63 59 58 62 63 60 57 55 56 58 57 54 54 55 54 55 58 56 48 42 40 39 39 38 36 33 31 27 23 27 36 39 39 39 39 39 38 36 35 35 36 38 41 41 41 42 42 40 39 38 38 37 37 36 35 35 35 35 34 32 29 27 26 26 24 22 21 21 22 23
50 51 49 47 47 44 41 42 41 39 40 40 41 45 55 61 62 60 60 61 61 59 57 57 58 56 54 55 57 56 55 56 54 49 44 42 40 40 39 37 35 32 27 23 28 36 40 42 42 41 41 41 40 39 40 41 42 44 44 43 41 41 40 39 39 37 36 35 35 34 33 33 33 31 29 27 26 26 24 23 21 21 21 22 23
45 45 44 42 42 40 39 39 38 37 38 38 39 40 44 50 58 62 60 57 57 57 57 57 57 57 54 52 51 52 53 53 51 46 42 39 39 40 40 38 36 32 26 24 31 38 41 43 45 44 43 43 43 42 42 43 44 46 47 46 44 42 41 39 36 35 34 34 33 32 32 31 30 29 28 27 25 24 23 22 21 20 21 22 22
42 43 42 41 41 39 38 38 38 38 38 37 36 37 37 39 46 54 56 54 52 51 52 53 53 53 54 52 49 50 52 52 49 44 40 36 35 35 35 35 34 30 24 26 34 41 43 43 45 46 46 45 45 44 42 43 46 47 48 48 48 46 42 38 35 35 34 32 31 31 31 30 29 28 27 26 24 23 22 21 20 20 20 21 21
40 41 40 40 40 40 38 38 38 38 38 37 36 37 37 36 37 41 43 42 41 40 42 43 41 41 43 44 45 47 49 49 47 45 42 38 35 33 31 30 29 26 25 30 38 44 45 45 45 46 45 45 45 45 44 44 47 48 48 48 49 47 44 40 38 37 34 32 32 31 30 29 28 27 25 24 23 22 21 20 20 20 20 20 20
38 39 39 39 40 39 37 37 36 36 36 36 36 37 37 37 36 36 36 36 36 36 37 38 38 37 37 39 41 42 43 43 43 42 41 40 38 35 32 30 29 29 30 34 39 45 48 48 46 45 44 44 45 45 45 45 46 47 49 49 48 47 45 43 41 39 36 33 32 30 29 28 27 25 24 23 22 21 20 20 19 19 19 20 19
37 38 38 39 39 39 37 36 36 36 36 36 36 36 37 37 36 36 36 35 36 36 36 36 37 36 34 33 34 36 37 38 37 37 37 38 37 36 35 35 35 35 35 37 41 46 50 50 47 45 44 44 45 45 46 45 44 45 47 48 47 47 46 45 42 39 36 33 31 29 29 27 25 24 23 22 21 20 19 19 18 18 18 18 17
37 38 38 37 37 38 38 37 37 37 36 35 36 35 35 35 35 35 35 34 34 34 34 33 33 33 31 29 28 28 30 32 33 33 34 34 35 37 40 41 39 38 38 38 41 44 48 49 47 45 45 45 45 45 46 45 44 44 44 46 47 46 45 43 41 38 36 33 31 30 28 26 24 24 22 21 20 19 18 17 17 17 16 15 14
36 36 36 35 35 36 36 36 36 35 33 33 33 33 32 33 32 32 33 33 33 33 34 33 33 33 32 30 27 26 26 26 28 29 31 32 34 37 41 44 44 41 39 39 40 40 42 45 45 44 44 45 45 44 45 45 43 42 42 44 46 45 43 42 39 35 33 32 31 30 28 26 24 23 21 20 19 18 16 16 15 15 14 13 13
35 35 34 33 34 35 34 33 32 31 31 31 31 30 30 30 30 30 31 31 31 31 32 32 31 29 29 27 24 25 26 25 23 24 26 27 31 36 40 44 46 44 39 38 38 37 38 41 41 41 43 45 44 43 44 43 41 40 40 41 43 44 43 40 36 33 31 30 29 28 27 25 24 22 21 20 18 16 15 14 13 12 11 11 11
34 34 34 33 33 34 34 33 32 31 31 31 30 30 30 30 30 30 31 30 30 30 30 31 30 30 31 29 24 23 26 25 22 21 22 23 26 31 38 43 47 45 39 36 36 37 37 38 39 40 42 44 43 42 40 39 38 38 38 39 40 41 40 37 34 32 30 29 27 26 25 24 23 21 20 18 16 15 14 14 12 11 10 10 11
33 34 34 33 33 34 35 35 35 34 34 32 30 29 29 29 29 30 30 29 29 29 29 29 29 29 31 32 28 24 26 28 25 21 20 22 24 26 32 41 46 43 35 33 36 37 36 36 38 41 42 43 42 38 34 34 36 36 36 36 37 38 37 34 32 30 29 27 26 25 23 22 21 20 18 16 15 14 13 12 11 10 9 9 11
32 33 34 34 34 35 36 36 36 36 36 34 31 29 29 29 30 30 31 31 32 32 32 32 31 29 29 30 29 26 26 29 29 24 19 20 22 22 24 33 41 39 33 33 36 37 36 36 39 41 42 41 38 33 30 32 33 33 32 34 35 35 34 32 30 28 27 26 24 23 22 21 19 17 15 14 13 13 12 11 10 9 8 9 11
30 32 33 34 34 34 34 34 34 34 34 34 33 31 30 29 29 28 28 29 31 32 33 33 33 32 30 28 27 25 23 25 27 26 22 21 23 22 21 25 32 34 34 35 37 37 36 36 37 37 36 34 32 29 27 27 28 29 30 32 33 32 31 30 29 27 26 25 23 22 21 20 18 16 14 13 13 12 11 10 10 8 8 9 11
31 32 32 33 33 33 33 32 32 32 31 31 31 30 29 28 26 25 25 25 26 26 28 29 30 32 32 28 25 23 22 21 21 23 24 24 24 23 22 23 28 32 35 35 34 33 33 32 30 28 27 28 28 27 24 23 24 26 28 29 30 30 30 29 27 26 25 24 23 22 20 19 16 15 14 13 12 11 11 10 9 8 8 9 11
29 29 28 29 29 30 31 31 30 29 27 26 26 26 26 25 25 24 24 24 23 23 24 25 27 29 30 28 24 21 21 20 19 20 21 23 23 22 22 24 27 30 31 30 28 26 26 25 25 24 24 27 27 25 22 22 22 24 25 27 28 28 27 25 24 23 23 22 21 20 19 17 15 14 13 12 11 11 10 8 7 7 8 10 12
25 24 25 25 25 26 26 27 27 26 23 22 22 22 21 21 21 21 20 20 20 20 20 21 22 23 25 25 24 23 21 19 18 18 18 19 20 21 21 22 24 25 26 26 24 22 21 20 21 21 24 26 26 24 23 24 24 24 24 24 24 23 23 22 22 22 22 21 20 19 17 16 14 13 12 11 11 10 8 7 7 8 9 11 13
22 23 23 23 23 23 23 23 22 21 19 18 19 19 19 19 19 19 20 20 20 20 21 21 22 23 23 23 23 21 18 16 16 15 14 15 17 18 19 19 20 21 21 20 19 18 17 18 20 22 25 27 26 26 26 26 26 27 26 25 23 22 22 22 22 21 20 19 18 17 16 15 14 13 11 10 9 8 8 7 7 9 10 12 14
21 22 22 22 22 22 22 21 20 19 18 17 17 17 18 18 18 18 19 19 19 20 21 22 23 22 21 19 18 16 14 12 11 10 11 13 15 16 15 16 16 16 16 15 15 16 18 21 23 24 25 25 26 27 28 28 28 28 26 25 24 23 22 21 20 20 19 18 17 16 16 14 13 12 11 9 8 8 8 7 8 10 11 12 14
21 21 21 22 22 21 21 20 19 19 19 18 18 17 17 17 17 18 18 18 17 17 17 17 17 16 14 13 12 11 10 9 7 7 9 12 13 12 12 12 12 12 13 16 18 21 22 24 24 24 24 25 26 28 28 28 27 26 24 23 22 21 20 19 19 18 17 17 16 16 15 13 12 11 10 9 8 8 9 9 10 11 12 13 15
22 21 21 21 22 21 21 20 19 18 18 17 16 16 15 14 14 14 14 14 13 13 12 12 11 10 10 9 8 7 5 5 5 6 8 9 9 8 9 11 14 17 20 23 25 25 25 25 25 25 25 26 27 27 26 25 24 23 21 20 20 19 18 18 17 16 16 16 16 15 14 12 11 10 9 8 8 9 11 11 12 12 13 14 15
22 22 22 22 22 22 22 22 21 20 19 18 16 15 15 14 14 13 13 12 12 11 10 10 9 8 7 6 5 3 1 1 4 6 8 8 8 10 13 17 22 24 26 27 28 28 28 28 27 27 27 27 26 25 24 23 22 21 20 19 18 17 16 16 15 15 15 15 14 14 12 10 9 8 9 10 10 11 13 13 13 14 14 14 16
Wind_Direction
349 344 342 344 347 348 347 345 340 330 318 306 298 294 293 292 292 292 290 287 286 284 281 279 277 275 273 271 269 267 264 263 261 258 256 253 251 250 250 249 248 247 247 246 245 244 244 244 244 244 244 244 244 244 243 242 241 241 241 241 241 240 239 237 237 239 242 245 246 245 243 243 245 247 249 250 252 253 256 259 262 263 267 272 278
0 355 351 349 349 351 351 351 350 347 340 329 317 309 302 295 290 288 287 287 287 286 284 281 279 277 275 272 270 269 267 265 263 261 259 257 254 252 251 250 249 249 248 248 247 246 245 244 245 245 244 244 244 244 244 243 242 241 241 240 240 240 239 238 238 238 241 244 245 245 244 244 245 248 249 250 251 253 254 257 260 262 267 272 277
4 359 355 351 350 350 350 351 351 351 350 346 339 331 321 311 301 292 286 284 284 284 284 283 280 278 276 274 272 270 269 267 265 263 261 259 257 255 254 252 251 250 249 249 249 248 247 246 246 245 244 244 244 244 244 243 242 241 241 241 241 241 240 239 238 239 240 242 245 246 246 246 245 247 248 249 251 254 255 256 259 262 267 272 276
2 1 357 353 349 347 347 349 350 350 350 350 348 343 336 329 319 308 299 291 285 281 282 282 282 279 277 276 275 273 271 270 268 265 263 261 259 258 257 255 254 252 251 250 249 248 248 247 246 245 244 244 244 244 244 243 242 242 241 241 241 241 241 239 238 239 239 240 242 244 247 247 247 249 250 249 251 254 255 256 259 262 266 270 274
359 359 357 355 350 345 343 343 344 346 349 350 350 347 343 338 332 324 315 306 296 288 282 280 280 280 278 278 277 276 275 273 271 269 267 265 263 261 260 258 258 256 254 253 251 249 248 247 246 245 244 244 244 244 243 243 242 242 241 241 240 240 240 239 238 238 238 239 240 241 243 244 246 249 252 252 251 252 254 256 258 261 264 269 273
355 355 356 357 354 350 345 341 340 341 343 345 346 348 346 342 337 332 325 317 308 299 291 284 282 281 281 281 279 278 277 275 273 272 270 268 265 264 262 260 260 259 258 256 254 251 250 249 248 246 245 244 244 244 243 243 242 242 241 240 240 240 239 238 237 237 237 238 239 239 239 239 241 244 249 251 251 251 254 257 258 261 265 269 275
348 349 352 353 354 354 350 346 342 339 337 338 339 341 343 343 340 336 330 323 317 309 301 293 288 284 282 281 280 279 277 276 274 273 271 269 267 266 264 262 260 259 259 258 256 254 252 251 250 248 247 246 246 245 244 243 243 242 241 240 239 238 238 238 237 236 236 236 237 238 237 237 237 239 243 246 247 249 252 255 257 260 264 268 273
346 346 345 345 347 349 349 347 343 338 335 333 332 333 336 338 339 339 335 329 323 317 309 301 294 287 282 279 278 278 277 276 275 274 272 271 270 268 266 263 261 260 259 259 259 257 255 253 252 251 249 249 249 248 247 245 244 243 242 240 238 238 237 237 236 236 235 235 235 236 237 236 234 235 238 241 243 246 250 254 255 258 261 266 269
344 344 343 342 343 343 344 344 341 338 335 332 330 329 330 332 335 337 337 335 330 324 316 309 301 293 287 282 278 276 274 274 274 275 275 274 272 270 267 265 263 261 260 260 259 259 258 257 255 253 252 251 251 250 249 247 245 244 242 240 238 237 236 236 236 235 235 234 234 234 235 235 234 233 235 240 243 246 249 252 254 256 260 264 268
337 338 340 341 340 340 340 340 339 337 334 333 332 330 328 329 330 332 335 335 334 331 325 318 310 301 293 287 282 277 274 274 275 276 276 275 273 271 268 265 263 261 260 259 257 256 257 257 258 257 255 254 252 250 248 247 246 245 244 243 241 239 237 236 236 235 235 235 235 234 234 235 235 235 237 241 243 245 247 250 253 256 258 262 267
331 331 333 335 336 337 337 337 338 336 334 332 331 330 330 329 328 328 330 331 332 333 332 328 322 313 302 292 285 281 279 279 279 278 276 274 273 271 269 267 264 262 260 259 258 256 255 256 257 258 257 255 253 251 248 247 247 245 244 244 244 243 242 240 238 237 236 236 236 235 235 235 236 237 238 240 242 244 247 249 252 254 256 261 266
326 326 327 328 330 331 332 333 334 334 334 332 330 329 329 328 328 327 326 327 329 330 331 332 331 327 318 306 295 287 283 282 282 279 278 276 274 271 270 269 266 264 261 259 259 258 257 257 257 257 258 257 255 253 251 249 248 246 244 243 243 244 244 244 242 241 240 239 238 236 236 235 236 237 238 239 241 243 245 248 250 252 254 258 262
322 322 322 323 324 325 325 326 327 329 331 331 331 330 328 327 327 327 326 325 326 326 328 328 329 331 329 323 314 301 291 286 281 278 278 278 276 274 272 270 268 266 263 261 260 258 258 258 258 258 258 258 257 254 252 250 248 246 244 242 242 242 242 242 243 243 244 244 243 241 239 237 236 237 238 238 240 243 245 247 249 250 252 256 260
317 317 318 318 318 318 318 319 320 322 324 325 326 327 327 327 326 326 326 325 324 324 324 324 325 326 327 327 326 320 311 300 288 281 277 276 275 275 273 272 270 268 265 263 261 261 260 259 259 259 259 258 256 255 253 251 248 246 243 241 240 240 239 239 239 239 239 240 242 243 242 240 239 238 238 237 240 244 247 248 248 249 252 256 259
313 314 314 313 312 312 312 312 313 315 317 319 320 322 323 324 324 324 323 323 324 324 323 322 322 322 323 324 324 325 326 319 304 290 281 275 273 272 271 271 269 268 266 264 263 262 262 261 261 260 260 259 257 256 255 253 250 247 245 243 241 240 239 238 237 236 235 234 235 236 236 235 235 236 236 236 239 244 247 247 247 249 252 255 257
312 313 312 310 308 307 307 308 308 309 311 313 314 316 317 318 320 321 320 319 320 321 321 321 320 320 321 322 321 321 325 327 321 307 290 279 274 271 268 268 267 266 265 264 263 262 262 262 261 260 259 258 258 257 256 254 251 248 245 244 243 242 240 239 237 236 235 233 232 232 232 231 230 232 233 236 240 243 245 244 244 246 250 253 255
311 312 311 308 306 305 305 305 305 305 307 308 309 311 312 313 314 316 316 316 316 317 318 318 319 319 319 320 319 318 319 323 325 320 307 290 277 271 270 268 266 265 265 264 263 262 261 260 260 259 258 257 257 256 255 253 250 247 245 243 242 242 240 239 237 234 232 231 229 230 231 231 230 231 234 237 240 243 242 242 243 246 249 251 255
309 310 309 307 305 303 302 302 302 303 303 303 305 306 306 307 308 310 311 312 313 314 314 314 314 316 316 317 317 316 316 318 320 320 318 307 287 274 272 271 269 267 266 265 264 263 262 260 258 257 257 257 256 255 254 252 249 246 243 241 241 241 240 237 233 230 227 226 226 227 228 229 230 232 235 237 240 242 242 242 244 245 248 252 256
306 306 306 306 304 302 300 300 300 300 300 300 301 301 302 302 303 304 306 307 308 308 310 311 310 311 312 313 313 312 313 314 316 316 317 316 303 283 272 270 268 267 266 265 264 263 262 261 259 258 257 257 256 255 253 251 248 245 243 240 239 239 238 236 232 228 225 225 225 225 226 228 230 232 235 237 239 240 241 242 243 244 248 252 256
302 302 302 302 301 300 299 298 297 297 298 298 298 298 298 298 299 300 300 301 302 303 304 306 306 307 308 308 308 308 308 309 312 312 312 314 311 297 279 268 265 266 266 264 263 263 263 262 260 258 257 257 256 253 251 249 248 246 243 241 240 239 238 236 233 230 228 228 228 228 227 227 228 231 234 237 238 238 239 242 243 244 246 251 254
300 299 298 298 297 297 297 296 296 296 296 296 296 295 295 295 295 296 296 297 297 298 299 300 301 302 303 304 304 304 304 305 306 308 308 308 309 305 291 277 268 265 265 264 263 263 262 262 261 260 258 258 257 253 251 249 247 246 245 244 244 242 240 239 235 230 228 228 228 227 226 226 227 230 234 236 238 240 241 242 242 242 244 248 252
298 297 296 295 294 294 294 293 294 294 294 295 295 294 293 293 293 293 294 294 294 294 295 295 297 297 297 298 299 300 301 301 301 301 303 303 303 303 300 292 280 268 263 263 264 264 263 262 263 263 261 260 258 254 252 249 246 246 246 245 243 240 238 236 233 228 225 224 224 224 225 227 229 231 235 237 239 242 242 240 239 240 244 248 251
297 295 294 293 292 292 291 291 291 292 292 292 293 292 292 291 291 291 291 292 292 292 292 292 293 294 293 293 294 295 297 298 298 297 297 298 299 298 298 298 289 274 264 262 263 265 266 265 265 266 264 261 258 255 252 248 245 244 243 242 237 235 234 232 229 227 224 222 222 224 227 231 232 233 235 238 241 242 239 236 237 239 243 247 250
295 293 292 291 291 290 290 289 289 289 289 289 289 289 289 290 290 289 289 290 291 291 290 290 291 292 291 291 290 290 292 295 296 295 294 293 293 294 295 297 294 282 270 265 263 264 265 266 267 267 265 262 259 256 253 249 244 239 238 238 234 231 230 228 226 225 223 221 224 228 231 233 234 233 235 237 238 237 233 233 236 238 242 246 249
293 291 291 290 290 289 289 288 287 286 285 285 284 284 285 286 287 287 287 287 288 288 288 289 290 290 290 290 289 288 290 292 293 292 292 291 290 290 292 294 294 286 274 267 265 264 265 267 267 266 265 262 258 255 251 248 241 233 232 235 232 227 227 226 223 222 222 223 226 228 230 232 232 233 235 235 232 230 230 232 235 238 243 247 251
291 290 289 288 287 287 286 285 285 284 283 282 281 281 281 282 283 283 284 284 284 285 285 286 287 287 287 287 288 288 288 289 289 289 289 289 289 288 289 290 292 288 276 267 264 262 263 265 263 262 262 259 255 249 245 242 235 225 226 231 229 226 226 223 219 219 221 224 226 227 228 230 231 232 234 231 226 225 228 232 235 239 244 250 256
289 287 286 286 285 285 284 283 283 283 282 282 282 281 281 281 281 281 281 281 281 282 282 283 283 284 285 285 286 287 287 286 286 286 286 287 288 288 288 286 286 285 280 270 261 257 257 259 259 258 257 256 253 246 242 239 231 222 223 227 226 225 224 221 220 221 224 225 226 226 227 229 229 230 229 226 225 227 230 232 235 239 245 252 258
288 286 285 285 284 283 283 283 283 283 283 283 283 282 281 281 281 280 278 278 278 278 278 278 279 280 281 283 284 285 285 283 282 283 284 285 285 285 285 282 279 279 279 270 258 251 251 252 253 253 250 247 244 237 233 233 228 221 220 221 220 221 222 221 221 223 225 225 224 224 225 226 226 225 224 224 225 226 230 233 235 238 244 251 257
289 288 287 287 286 286 286 286 286 285 285 285 284 284 282 281 280 279 277 274 273 273 273 274 275 276 278 279 280 281 281 281 281 282 282 281 279 279 280 279 276 274 274 266 251 246 245 244 244 244 242 239 235 228 223 223 220 218 217 215 215 217 219 219 218 219 220 221 222 222 223 223 222 220 219 220 221 224 229 233 235 239 244 250 256
293 291 291 291 290 289 289 288 287 286 285 284 283 283 282 281 279 277 276 275 274 273 272 271 272 274 274 274 274 275 276 278 280 280 278 274 273 274 275 275 273 271 268 258 244 240 242 241 239 239 238 236 231 224 218 215 214 214 213 211 211 213 216 217 217 217 218 219 219 218 218 217 217 216 216 217 220 225 229 233 236 241 245 250 256
297 295 295 294 292 291 289 287 286 284 282 281 280 280 282 282 281 279 278 277 277 275 273 272 272 271 271 271 271 271 272 273 275 276 275 271 269 269 269 271 270 267 261 248 236 237 239 240 238 237 235 234 231 224 218 214 213 213 212 210 209 208 210 214 217 218 217 216 214 213 212 213 215 216 217 219 221 225 229 234 238 242 247 251 255
300 298 296 294 293 292 289 288 286 285 283 282 280 280 281 283 284 283 282 281 279 278 276 275 273 272 269 268 268 268 269 269 270 270 270 268 266 265 265 266 266 264 256 239 232 235 238 238 237 236 233 231 230 226 221 215 212 212 213 212 210 208 209 214 220 219 215 213 211 210 211 214 216 217 218 220 221 224 229 234 238 242 247 249 253
301 299 296 295 294 292 289 287 285 283 283 282 280 279 278 279 282 285 286 286 284 282 280 278 276 275 273 269 265 264 264 265 265 264 262 260 259 259 259 260 259 257 246 230 228 234 237 237 236 235 233 230 228 226 222 215 212 214 215 215 215 213 213 215 219 217 214 212 212 212 214 216 216 217 219 220 221 224 228 233 237 240 244 248 251
302 300 298 297 294 291 288 287 285 283 282 281 279 278 278 277 279 282 285 286 286 283 281 279 276 274 274 273 270 267 266 265 262 258 255 253 251 250 251 251 249 244 234 226 228 233 235 235 235 233 231 228 226 225 222 217 215 217 217 216 217 217 215 214 215 215 214 214 214 214 216 216 216 218 219 219 221 224 227 232 235 238 242 247 249
302 302 302 301 298 293 289 287 285 283 282 280 279 278 278 278 277 277 278 280 281 281 280 278 277 276 274 271 269 269 268 267 263 256 251 248 247 246 245 241 237 234 229 225 226 231 233 234 234 231 226 222 222 223 222 221 220 219 218 217 216 214 213 212 212 213 214 215 215 215 214 213 214 216 217 219 223 226 229 232 236 239 241 244 247
303 304 303 302 301 297 293 290 287 284 281 280 279 278 277 277 276 275 275 276 276 278 278 279 283 286 283 275 271 268 265 264 261 255 248 244 241 239 236 231 229 230 229 224 224 228 231 233 234 230 223 220 220 221 222 223 223 223 222 220 217 214 212 212 213 214 214 215 215 213 211 211 212 213 216 221 225 227 231 234 236 238 240 243 251
305 305 303 303 304 302 300 297 294 290 284 281 279 278 276 276 274 272 273 274 274 276 277 279 283 286 282 275 272 270 266 262 257 252 247 243 237 233 231 229 228 229 229 227 225 227 229 230 231 227 221 219 221 221 221 222 224 225 224 221 218 216 216 215 216 216 214 212 210 209 207 208 210 213 218 223 225 228 232 233 233 237 240 247 259
306 306 305 305 307 305 300 296 292 289 284 280 279 278 276 276 274 272 271 271 272 274 275 277 280 283 283 279 272 269 269 265 256 250 245 240 234 230 228 227 227 228 230 231 229 227 224 223 222 220 218 220 221 221 220 222 224 225 225 221 217 216 217 217 215 214 212 209 206 204 203 205 209 213 217 221 223 226 229 229 231 236 242 253 269
310 309 308 308 308 304 297 290 285 283 282 280 279 278 276 276 275 274 272 272 273 274 275 276 276 277 283 286 278 268 267 264 254 246 243 238 232 228 226 225 225 227 230 232 231 227 223 220 218 216 218 221 221 220 221 224 225 226 226 221 216 214 215 214 212 210 207 204 202 201 202 204 208 211 214 216 219 221 223 226 231 237 247 263 278
313 312 310 310 309 306 301 294 288 284 283 281 279 278 277 275 276 276 275 274 275 275 275 277 276 274 279 286 284 271 265 264 256 247 244 241 235 230 227 226 224 224 228 232 231 228 224 220 216 214 216 219 221 220 223 227 228 226 224 221 216 213 213 212 211 208 203 199 198 200 203 205 208 209 210 211 213 215 219 224 231 239 255 273 286
317 314 313 312 310 309 306 301 296 293 291 286 279 276 275 274 275 275 274 273 275 276 276 277 278 277 280 285 287 279 268 265 263 255 246 243 241 238 232 227 225 224 227 231 231 230 227 221 215 214 216 220 220 220 224 229 228 224 221 217 214 213 211 208 207 203 198 196 197 200 203 206 208 208 209 208 210 213 217 224 232 243 260 280 296
319 316 315 315 314 312 309 305 304 302 298 292 286 281 279 279 279 277 273 271 272 275 277 278 280 281 282 284 288 283 271 264 264 262 252 245 248 249 241 229 224 223 227 231 231 230 227 222 218 218 220 222 221 220 224 228 227 223 218 212 209 208 206 202 198 195 194 196 198 200 203 205 206 207 208 209 211 214 218 224 234 247 265 285 304
322 321 320 319 318 317 314 310 308 305 301 298 295 291 288 286 284 280 277 274 273 274 275 277 279 282 284 287 286 280 269 262 260 258 254 251 253 256 249 231 220 219 225 230 230 230 229 227 225 226 227 227 225 223 224 226 224 218 212 207 204 202 199 194 191 191 193 196 198 199 202 203 203 205 209 211 215 219 221 227 239 254 275 295 311
329 326 323 320 318 318 317 317 314 310 307 304 300 296 292 288 283 281 280 278 277 277 277 277 277 278 281 288 290 280 268 262 259 253 250 251 253 254 251 239 226 221 223 227 229 233 235 233 232 231 229 225 221 219 219 220 217 211 205 201 198 195 192 190 190 192 194 196 197 199 201 202 203 207 212 215 221 226 228 235 249 264 285 306 317
330 326 323 321 318 317 318 320 321 320 317 312 306 302 299 294 291 290 290 287 285 284 283 281 280 278 280 288 294 286 272 266 262 255 251 252 252 249 248 242 232 225 224 225 229 235 236 234 232 229 219 211 208 205 203 203 201 199 198 196 193 189 187 187 189 192 193 196 198 199 200 202 206 211 216 222 230 233 235 245 264 280 297 310 318
333 334 334 333 330 327 326 327 328 326 324 321 317 314 312 309 306 305 304 302 301 300 299 296 294 290 289 293 294 288 279 272 268 263 259 255 250 245 243 239 232 226 223 225 230 233 231 228 225 217 204 196 192 188 185 185 184 184 185 185 184 183 183 184 187 190 192 195 197 199 201 205 209 216 224 232 237 242 247 259 277 295 306 312 319
343 346 347 346 343 341 340 339 338 335 332 331 329 327 325 323 319 315 312 311 311 310 309 308 304 299 297 296 293 287 280 274 271 267 260 250 242 238 237 234 228 222 219 221 225 224 216 206 201 194 187 183 179 176 175 176 176 175 174 174 175 178 181 183 186 188 190 193 197 199 203 209 214 222 232 240 243 250 260 273 292 305 309 311 320
354 355 356 357 354 351 350 350 351 351 350 348 345 343 340 337 332 327 323 322 319 313 307 303 301 299 297 295 292 287 282 277 273 264 248 234 228 226 226 223 217 216 214 210 202 194 184 179 177 177 175 174 172 171 171 171 171 171 172 173 175 177 178 180 184 187 189 193 198 202 208 215 221 229 240 247 252 263 276 289 302 308 307 311 323
2 2 3 4 4 1 359 358 357 359 359 358 356 354 351 346 340 333 327 322 319 314 308 303 303 304 304 301 296 291 285 279 268 244 225 218 214 211 211 206 201 197 189 175 165 162 161 162 164 166 166 166 167 166 166 166 167 169 170 172 173 173 175 178 183 187 190 195 200 206 213 221 228 236 248 258 268 281 291 296 303 307 308 312 322
9 11 12 13 12 12 11 9 8 7 6 4 1 357 353 347 342 336 332 329 327 327 326 324 322 322 321 317 311 304 291 273 243 214 202 197 193 189 183 173 166 161 156 150 147 148 150 153 155 157 157 157 158 159 160 161 163 165 166 168 169 171 174 178 182 186 190 196 203 211 218 227 236 247 261 273 282 288 291 294 301 307 309 313 320
18 19 20 21 21 20 20 20 19 18 17 15 13 9 6 3 0 356 354 354 353 351 350 350 350 352 353 353 354 358 2 188 181 172 163 155 150 152 152 151 149 147 145 143 142 144 145 147 147 148 149 151 152 154 156 157 159 161 163 165 167 170 173 176 180 185 190 198 207 215 224 234 248 264 277 284 285 285 287 291 298 305 309 314 320